Погода в Куге

Россия / Республика Дагестан     41°46′14″N   47°57′51″E
темп.,
°C
ветер,
м/с
пор.,
м/с
влажн.,
%
обл.,
%
осадки,
мм/ч
давл.,
гПа
погр.,
м
9 мая, вс
вс900:00+12зюз225993 0.0 101215
03:00+11з224322 0.0 101015
06:00+15з22480 0.0 100921
09:00+20в31440 0.0 1007437
12:00+21в324915 0.0 1006607
15:00+21всв325358 0.0 1004634
18:00+16св2276100 0.1 1006127
21:00+12в2394100 0.6 1011148
10 мая, пн
пн1000:00+10юв3499100 1.6 1011277
03:00+6юв3699100 11.0 1015350
06:00+3ю5897100 3.9 1020600
09:00+2юв3499100 10.5 1021383
12:00+3в2296100 4.9 1022437
15:00+6св237755 5.7 1020814
18:00+5всв2281100 0.1 1021530
21:00+5ююв118597 0.1 1023191
11 мая, вт
вт1100:00+4юз228685 0.1 102288
03:00+2зюз327815 0.1 102226
06:00+5зюз21715 0.0 102153
09:00+8вюв336021 0.0 10181007
12:00+10вюв436571 0.0 1016971
15:00+10в327696 0.0 1016692
18:00+7в219095 0.0 1017297
21:00+6ю019212 0.0 101829
12 мая, ср
ср1200:00+5зсз11840 0.0 101710
03:00+5зсз11830 0.0 101710
06:00+8с11780 0.0 101776
09:00+12всв31705 0.0 1016465
12:00+15всв426611 0.0 1016747
15:00+15в316913 0.0 1016642
18:00+12в218516 0.0 1017155
21:00+9з11790 0.0 101810
13 мая, чт
чт1300:00+10з22640 0.0 101710
03:00+10з22510 0.0 101712
06:00+13зюз11535 0.0 101722
09:00+18в314741 0.0 1017398
12:00+20в32550 0.0 1016710
15:00+20в32622 0.0 1016650
18:00+16вюв21868 0.0 1016105
21:00+14зюз22803 0.0 101711